STARLINK-1301, 45361

Orbit data source: Space-Track

STARLINK-1301, 45361 is a payload satellite owned by SpaceX/Seattle (US) in LEO that was launched on Wed, 18 Mar 2020 UTC via an FALCON 9 launch vehicle from the Air Force Eastern Test Range (AFETR). Payload-class satellites include a variety of spacecraft equipped with specific instruments for various scientific and technological missions. These include communications satellites like Starlink; space stations such as the ISS; scientific satellites like the Hubble; Earth observation satellites from companies like Planet Labs, Umbra, and HawkEye 360; GPS; miniature CubeSats for education and research; and military/defense satellites.

Loading next visibility...
Identifier
45361, 2020-019B
Orbit
LEO
Last TLE update
13 hours ago
Origin
Manufacturer
SpaceX/Seattle
Mission
Operational Commercial Communications
Bus & Motor
STARLINK, Unknown motor
Mass
260 kg wet, ~248 kg dry
Launch date (UTC)
2020-03-18 (5 years ago)
Launch vehicle
FALCON 9
Launch site
Air Force Eastern Test Range (AFETR)
Object type
Payload
Rocket body
Debris
Shape & HBR
Box + 1 Pan, 8.86 m
Radar Cross Section
13.562 m², Large (>1 m²)

Expand to show TLE details & history

TLE from 13 hours ago
0 STARLINK-1301
1 45361U 20019B   25183.73192534 -.00000004  00000-0  18586-4 0  9991
2 45361  53.0539 188.7224 0001049  79.2772 280.8335 15.06392648292338
Epoch: 2025-07-02T17:33Z
TLE epoch observation values (Epoch: 2025-07-02T17:33:58.349Z)
Latitude
-0.00002°
Longitude
4.22046°
Altitude
547.977 km
Speed
7.589 km/s
True Right ascension
12h 34m 53s
True Declination
0° 00' 00"
Sunlit
Object was in daylight at epoch
Visualization orbit readout
Latitude
46.00775°
Longitude
52.5662°
Altitude
551.446 km
Speed
7.592 km/s
Apparent Right ascension
10h 59m 16s
Apparent Declination
15° 40' 23"
Sunlit
Object is in daylight
Visualization observer readout
Local Sidereal Time
18:20:55
Azimuth
295.097° NW
Elevation
-4.829°
Doppler factor
1
Orbital elements
Apogee altitude
548.231 km
Perigee altitude
546.778 km
Semi-major axis
6,925.642 km
Eccentricity
0.0001
Inclination
53.0539°
RAAN
188.7224°
Arg. of periapsis
79.2772°
True anomaly
Unknown
Mean anomaly
280.8335°
Eccentric anomaly
Unknown
Mean motion
3.76576 °/min
Orbital period
95.6 mins
BSTAR
0.000018586
Loading maneuver chart data...
Loading SW <> Apogee altitude chart data...
Loading historical data...
Loading historical data...
Loading historical data...
Loading historical data...
Loading historical data...
Loading historical data...
Loading historical data...

STARLINK-1301 Visibility forecast

Observer location: undefined°, undefined°

Span
Click to sort rows by Start time (UTC) header in descending order
Start Az.
Max El. time (UTC)
Max El. Az.
Max El.
End time (UTC)
End Az.
5 mins2025-07-03 08:21:13.192Z346.373° N2025-07-03 08:23:13.192Z25.156° NE20.172°2025-07-03 08:26:13.192Z73.146° E
6 mins2025-07-03 10:00:13.192Z308.763° NW2025-07-03 10:03:13.192Z153.441° SSE44.651°2025-07-03 10:06:13.192Z132.588° SE
7 mins2025-07-04 03:12:13.192Z243.827° WSW2025-07-04 03:15:13.192Z325.526° NNW41.897°2025-07-04 03:19:13.192Z45.178° ENE
|